sat.trackr.live / text

‹ back to catalog

STARLINK-36389

NORAD 67806 · 2026-032K

PAYLOAD ACTIVE UNKNOWN

§ Identity

Operator
Country
US
Launch date
2026-02-15
Launch site
AFWTR
Launch vehicle
Mass (kg)
RCS (m²)

Purposes: comms

External: N2YO · Heavens-Above · Gunter

§ Orbital elements

Epoch: 2026-09-18T19:16:39.410688Z

Period
93.91 min
Inclination
97.2873°
Eccentricity
0.0002216
Mean motion
15.33453356 rev/d
Perigee alt
464.0 km
Apogee alt
467.0 km
Semi-major
6,843.7 km
B*
5.3630e-4
RAAN
88.2106°
Arg perigee
87.3299°
Mean anomaly
272.8197°
Rev number
3,455

§ Raw data

STARLINK-363891 67806U 26032K   26261.80323392  .00017284  00000+0  53630-3 0  99982 67806  97.2873  88.2106 0002216  87.3299 272.8197 15.33453356 34550

JSON: /api/v1/satellites/67806 · /tle

For live sub-satellite position, see the globe view (requires WebGL).

§ Visibility from observer

Set your observer location to see the next 7 days of passes ≥ 10°. The values pass through the URL so the page stays shareable.

No JS? Fill the form by hand. The geolocation button needs JavaScript.